STARLINK-2120 (47398 NORAD) Tracking and Keplerian Element Data

This shows tracking and keplerian element data for the satellite.

Feedback or suggestion? Click here.




ElementValue
Catalog47398
NameSTARLINK-2120
Epoch Orbit177
Epoch Day99.91667824
Epoch Year2021
RAAN181.7239
Inclination53.0545
Eccentricity0.0003998
Argument of Perigee11.9178
Mean Anonmoly47.5101
Mean Motion15.62644871
Decay Rate0.00011163
L11 47398U 21005BB 21099.91667824 .00011163 00000-0 12811-3 0 9991
L22 47398 53.0545 181.7239 0003998 11.9178 47.5101 15.62644871 1779

Live tracking and technical data element details for STARLINK-2120 (NORAD 47398). STARLINK-2120 can be tracked NOW for your location showing map with azimuth and elevation plus other details from your city location.

Track the satellite on the map from your city or location and see movement details for azimuth, elevation, latitude, longitude, range, height, and movement on the map or in text.







IsCatalogInMostPopularTable: catalog: 47398, numindb: 14
Update: records affected: 1



GetName: 47398 STARLINK-2120

Hit Count: updated at: Sat, 10 Apr 2021 18:41:40 GMT